This is the latest recevied weather packets stored in our database for station/object CE7LGA-10. If no packets are shown the sender has not sent any weather packets the latest 10 day(s).
| Time | Temp. | Humidity | Pressure | Rain* | Wind** | Luminosity | Snow |
|---|---|---|---|---|---|---|---|
| 1777732629 | 12.78° C | 67% | 1012.2 hPa | - | - | - | - |
| 1777731729 | 12.22° C | 67% | 1012.2 hPa | - | - | - | - |
| 1777729929 | 12.22° C | 68% | 1012.5 hPa | - | - | - | - |
| 1777729029 | 11.67° C | 68% | 1012.6 hPa | - | - | - | - |
| 1777728129 | 11.11° C | 67% | 1012.9 hPa | - | - | - | - |
| 1777727229 | 11.11° C | 64% | 1013.1 hPa | - | - | - | - |
| 1777726329 | 11.11° C | 65% | 1013.1 hPa | - | - | - | - |
| 1777725431 | 11.11° C | 65% | 1013.2 hPa | - | - | - | - |
| 1777724531 | 11.11° C | 65% | 1013.3 hPa | - | - | - | - |
| 1777723631 | 11.11° C | 64% | 1013.4 hPa | - | - | - | - |
| 1777722731 | 11.67° C | 64% | 1013.3 hPa | - | - | - | - |
| 1777721830 | 11.67° C | 64% | 1013.6 hPa | - | - | - | - |
| 1777720930 | 11.67° C | 65% | 1013.8 hPa | - | - | - | - |
| 1777720030 | 11.67° C | 65% | 1014 hPa | - | - | - | - |
| 1777719130 | 11.67° C | 65% | 1014 hPa | - | - | - | - |
| 1777718230 | 11.67° C | 65% | 1014.3 hPa | - | - | - | - |
| 1777717330 | 11.67° C | 65% | 1014.7 hPa | - | - | - | - |
| 1777716430 | 12.22° C | 65% | 1014.8 hPa | - | - | - | - |
| 1777715530 | 12.22° C | 65% | 1015.1 hPa | - | - | - | - |
| 1777714630 | 12.22° C | 65% | 1015.4 hPa | - | - | - | - |
| 1777713730 | 12.22° C | 65% | 1015.3 hPa | - | - | - | - |
| 1777712830 | 12.22° C | 65% | 1015.6 hPa | - | - | - | - |
| 1777711930 | 12.78° C | 65% | 1015.6 hPa | - | - | - | - |
| 1777711029 | 12.78° C | 65% | 1015.9 hPa | - | - | - | - |
| 1777710129 | 12.78° C | 66% | 1016.1 hPa | - | - | - | - |
* Rain since midnight (hover to see other rain measurements)
** Current wind speed in m/s (hover to see current wind gust speed)